Bartow, FL

7:13 PM EDT on April 24, 2017 (GMT -0400)
Bartow Municipal

Weather History for KBOW - November, 2014

Change the Weather History Date:

Tuesday, November 11, 2014

  Actual Average Record
Temperature  
Mean Temperature 64 °F -  
Max Temperature 75 °F 79 °F 89 °F (1938)
Min Temperature 53 °F 57 °F 35 °F (1956)
Degree Days  
Heating Degree Days 1    
Growing Degree Days 14 (Base 50)    
Moisture  
Dew Point 54 °F    
Average Humidity 74    
Maximum Humidity 100    
Minimum Humidity 43    
Precipitation  
Precipitation 0.00 in - - ()
Sea Level Pressure  
Sea Level Pressure 29.95 in    
Wind  
Wind Speed 5 mph (WNW)    
Max Wind Speed 13 mph    
Max Gust Speed -    
Visibility 10 miles    
Events      
Averages and records for this station are not official NWS values.
T = Trace of Precipitation, MM = Missing Value Source: NWS Daily Summary

Daily Weather History Graph

Daily Weather History Graph

Search for Another Location

Airport or City:

Trip Planner

Search our weather history database for the weather conditions in past years. The results will help you decide how hot, cold, wet, or windy it might be!

Date:

Astronomy

Nov. 11, 2014 Rise Set
Actual Time 6:45 AM EST 5:36 PM EST
Civil Twilight 6:20 AM EST 6:01 PM EST
Nautical Twilight 5:52 AM EST 6:29 PM EST
Astronomical Twilight 5:24 AM EST 6:56 PM EST
Moon 9:58 PM EST (11/11) 10:50 AM EST (11/11)
Length of Visible Light 11h 40m
Length of Day
10h 50m
Waning Gibbous, 77% of the Moon is Illuminated
Nov 11
Waning Gibbous
Nov 14
Last Quarter
Nov 22
New
Nov 29
First Quarter
Dec 6
Full

Hourly Weather History & Observations

Time (EST) Temp. Dew Point Humidity Pressure Visibility Wind Dir Wind Speed Gust Speed Precip Events Conditions
12:15 AM 60.8 °F 59.0 °F 94% 29.94 in 10.0 mi NNW 3.5 mph - N/A   Clear
12:35 AM 59.0 °F 59.0 °F 100% 29.94 in 10.0 mi WNW 4.6 mph - N/A   Clear
12:55 AM 60.8 °F 60.8 °F 100% 29.94 in 10.0 mi West 5.8 mph - N/A   Clear
1:15 AM 60.8 °F 60.8 °F 100% 29.95 in 10.0 mi NW 3.5 mph - N/A   Clear
1:35 AM 59.0 °F 59.0 °F 100% 29.94 in 10.0 mi Calm Calm - N/A   Clear
1:55 AM 59.0 °F 59.0 °F 100% 29.94 in 10.0 mi Calm Calm - N/A   Clear
2:15 AM 57.2 °F 57.2 °F 100% 29.93 in 10.0 mi Calm Calm - N/A   Clear
2:35 AM 57.2 °F 57.2 °F 100% 29.92 in 10.0 mi Calm Calm - N/A   Clear
2:55 AM 57.2 °F 57.2 °F 100% 29.92 in 10.0 mi Calm Calm - N/A   Clear
3:15 AM 55.4 °F 55.4 °F 100% 29.92 in 10.0 mi Calm Calm - N/A   Clear
3:35 AM 53.6 °F 53.6 °F 100% 29.93 in 2.5 mi Calm Calm - N/A   Clear
3:55 AM 57.2 °F 57.2 °F 100% 29.93 in 10.0 mi NW 3.5 mph - N/A   Clear
4:15 AM 57.2 °F 57.2 °F 100% 29.93 in 10.0 mi NW 4.6 mph - N/A   Clear
4:35 AM 57.2 °F 57.2 °F 100% 29.94 in 10.0 mi WNW 4.6 mph - N/A   Clear
4:55 AM 57.2 °F 57.2 °F 100% 29.93 in 10.0 mi WNW 3.5 mph - N/A   Clear
5:15 AM 57.2 °F 57.2 °F 100% 29.94 in 10.0 mi NNW 3.5 mph - N/A   Clear
5:35 AM 55.4 °F 55.4 °F 100% 29.94 in 10.0 mi NNW 3.5 mph - N/A   Clear
5:55 AM 55.4 °F 55.4 °F 100% 29.95 in 10.0 mi Calm Calm - N/A   Clear
6:15 AM 55.4 °F 53.6 °F 94% 29.95 in 10.0 mi NW 4.6 mph - N/A   Clear
7:47 AM 59.0 °F 48.2 °F 67% 29.97 in 10.0 mi NW 5.8 mph - N/A   Clear
8:56 AM 64.4 °F 46.4 °F 52% 29.98 in 10.0 mi NW 8.1 mph - N/A   Clear
9:47 AM 66.2 °F 42.8 °F 43% 29.98 in 10.0 mi NW 9.2 mph - N/A   Clear
10:47 AM 69.8 °F 50.0 °F 49% 29.97 in 10.0 mi NW 11.5 mph - N/A   Clear
11:47 AM 71.6 °F 51.8 °F 50% 29.95 in 10.0 mi WNW 11.5 mph - N/A   Scattered Clouds
12:47 PM 73.4 °F 51.8 °F 47% 29.93 in 10.0 mi West 9.2 mph - N/A   Partly Cloudy
1:47 PM 75.2 °F 51.8 °F 44% 29.93 in 10.0 mi West 11.5 mph - N/A   Partly Cloudy
2:47 PM 75.2 °F 53.6 °F 47% 29.91 in 10.0 mi WNW 9.2 mph - N/A   Clear
3:47 PM 75.2 °F 53.6 °F 47% 29.91 in 10.0 mi West 10.4 mph - N/A   Clear
4:35 PM 75.2 °F 53.6 °F 47% 29.93 in 10.0 mi West 11.5 mph - N/A   Clear
4:47 PM 73.4 °F 53.6 °F 50% 29.93 in 10.0 mi WNW 12.7 mph - N/A   Partly Cloudy
4:55 PM 73.4 °F 53.6 °F 50% 29.93 in 10.0 mi WNW 10.4 mph - N/A   Clear
5:15 PM 71.6 °F 53.6 °F 53% 29.93 in 10.0 mi WNW 8.1 mph - N/A   Clear
5:35 PM 71.6 °F 53.6 °F 53% 29.94 in 10.0 mi West 8.1 mph - N/A   Clear
5:55 PM 69.8 °F 53.6 °F 56% 29.95 in 10.0 mi WNW 6.9 mph - N/A   Clear
6:15 PM 69.8 °F 51.8 °F 53% 29.95 in 10.0 mi West 8.1 mph - N/A   Clear
6:35 PM 66.2 °F 50.0 °F 56% 29.95 in 10.0 mi West 10.4 mph - N/A   Clear
6:55 PM 66.2 °F 50.0 °F 56% 29.95 in 10.0 mi WNW 11.5 mph - N/A   Clear
7:15 PM 66.2 °F 50.0 °F 56% 29.95 in 10.0 mi WNW 9.2 mph - N/A   Clear
7:35 PM 64.4 °F 50.0 °F 59% 29.96 in 10.0 mi WNW 8.1 mph - N/A   Clear
7:55 PM 64.4 °F 51.8 °F 64% 29.96 in 10.0 mi WNW 6.9 mph - N/A   Clear
8:15 PM 64.4 °F 51.8 °F 64% 29.97 in 10.0 mi NW 8.1 mph - N/A   Clear
8:35 PM 64.4 °F 51.8 °F 64% 29.98 in 10.0 mi WNW 6.9 mph - N/A   Clear
8:55 PM 62.6 °F 51.8 °F 68% 29.98 in 10.0 mi WNW 6.9 mph - N/A   Clear
9:15 PM 62.6 °F 51.8 °F 68% 29.98 in 10.0 mi WNW 5.8 mph - N/A   Clear
9:35 PM 62.6 °F 53.6 °F 72% 29.98 in 10.0 mi NW 5.8 mph - N/A   Clear
9:55 PM 62.6 °F 53.6 °F 72% 30.00 in 10.0 mi WNW 4.6 mph - N/A   Clear
10:15 PM 62.6 °F 53.6 °F 72% 29.99 in 10.0 mi WNW 5.8 mph - N/A   Clear
10:35 PM 62.6 °F 53.6 °F 72% 29.99 in 10.0 mi NW 6.9 mph - N/A   Clear
10:55 PM 62.6 °F 53.6 °F 72% 29.99 in 10.0 mi NW 5.8 mph - N/A   Clear
11:15 PM 60.8 °F 53.6 °F 77% 30.00 in 10.0 mi NW 5.8 mph - N/A   Clear
11:35 PM 60.8 °F 51.8 °F 72% 30.00 in 10.0 mi NW 3.5 mph - N/A   Clear
11:55 PM 59.0 °F 51.8 °F 77% 29.99 in 10.0 mi Calm Calm - N/A   Clear